Location: Islay
(41.3172°N, 105.1346°W)
Time: 10:38:08
(UTC+00:00)

ACS3 Solar Sail - Visible Passes

Search period start: 18 April 2026 00:00
Search period end: 28 April 2026 00:00
Orbit: 872 x 975 km, 97.2° (Epoch: 17 April)

Date Brightness Start Highest point End Pass type
(mag) Time Alt. Az. Time Alt. Az. Time Alt. Az.
18 Apr 3.2 07:30:17 10° NNE 07:34:00 31° ENE 07:34:00 31° ENE visible
18 Apr 2.8 09:12:51 10° N 09:17:33 33° WNW 09:17:33 33° WNW visible
19 Apr 2.9 07:39:32 10° NNE 07:43:37 37° NE 07:43:37 37° NE visible
19 Apr 2.9 09:22:27 10° N 09:27:10 28° WNW 09:27:10 28° WNW visible
20 Apr 2.6 07:48:46 10° NNE 07:53:09 44° NE 07:53:09 44° NE visible
20 Apr 3.1 09:32:01 10° NNW 09:36:39 24° WNW 09:36:42 24° WNW visible
21 Apr 2.4 07:57:57 10° NNE 08:02:36 52° NE 08:02:36 52° NE visible
21 Apr 3.3 09:41:35 10° NNW 09:45:46 20° WNW 09:46:08 20° WNW visible
22 Apr 4.2 06:28:11 10° ENE 06:28:27 10° ENE 06:28:27 10° ENE visible
22 Apr 2.2 08:07:04 10° NNE 08:11:58 60° NNE 08:11:58 60° NNE visible
22 Apr 3.5 09:51:09 10° NNW 09:54:47 17° WNW 09:55:29 16° WNW visible
23 Apr 4.0 06:36:06 10° NE 06:37:44 13° ENE 06:37:44 13° ENE visible
23 Apr 2.0 08:16:08 10° N 08:21:14 64° N 08:21:14 64° N visible
23 Apr 3.6 10:00:47 10° NNW 10:03:41 14° WNW 10:04:45 13° WNW visible
24 Apr 3.8 06:44:26 10° NE 06:46:55 16° ENE 06:46:55 16° ENE visible
24 Apr 2.0 08:25:10 10° N 08:30:26 63° NNW 08:30:26 63° NNW visible
24 Apr 3.8 10:10:40 10° NW 10:12:30 11° WNW 10:13:56 10° WNW visible
25 Apr 3.6 06:52:52 10° NE 06:56:01 20° ENE 06:56:01 20° ENE visible
25 Apr 2.1 08:34:08 10° N 08:39:32 57° NW 08:39:32 57° NW visible
26 Apr 3.4 07:01:21 10° NE 07:05:03 24° ENE 07:05:03 24° ENE visible
26 Apr 2.2 08:43:02 10° N 08:48:32 49° WNW 08:48:32 49° WNW visible
27 Apr 3.2 07:09:51 10° NNE 07:13:58 28° ENE 07:13:58 28° ENE visible
27 Apr 2.4 08:51:53 10° N 08:57:28 42° WNW 08:57:28 42° WNW visible
